Weather History for KJYR - October, 2013

Change the Weather History Date:

Friday, October 4, 2013

  Actual Average Record
Temperature  
Mean Temperature 63 °F -  
Max Temperature 84 °F 72 °F 93 °F (2005)
Min Temperature 42 °F 45 °F 29 °F (1950)
Degree Days  
Heating Degree Days 2    
Growing Degree Days 13 (Base 50)    
Moisture  
Dew Point 57 °F    
Average Humidity 78    
Maximum Humidity 100    
Minimum Humidity 45    
Precipitation  
Precipitation 0.00 in - - ()
Sea Level Pressure  
Sea Level Pressure 29.74 in    
Wind  
Wind Speed 15 mph (SSE)    
Max Wind Speed 24 mph    
Max Gust Speed 34 mph    
Visibility 10 miles    
Events Thunderstorm    
Averages and records for this station are not official NWS values.
T = Trace of Precipitation, MM = Missing Value Source: NWS Daily Summary

Daily Weather History Graph

Daily Weather History Graph

Search for Another Location

Airport or City:

Trip Planner

Search our weather history database for the weather conditions in past years. The results will help you decide how hot, cold, wet, or windy it might be!

Date:

Astronomy

Oct. 04, 2013 Rise Set
Actual Time 7:30 AM CDT 7:07 PM CDT
Civil Twilight 7:03 AM CDT 7:34 PM CDT
Nautical Twilight 6:31 AM CDT 8:06 PM CDT
Astronomical Twilight 5:59 AM CDT 8:38 PM CDT
Moon 7:07 AM CDT (10/4) 6:50 PM CDT (10/4)
Length of Visible Light 12h 31m
Length of Day
11h 36m
Waning Crescent, 0% of the Moon is Illuminated
Oct 4
Waning Crescent
Oct 4
New
Oct 11
First Quarter
Oct 18
Full
Oct 26
Last Quarter

Hourly Weather History & Observations

Time (CDT) Temp. Windchill Dew Point Humidity Pressure Visibility Wind Dir Wind Speed Gust Speed Precip Events Conditions
12:15 AM 64.4 °F - 62.6 °F 94% 29.74 in 10.0 mi North 11.5 mph - N/A   Overcast
12:35 AM 62.6 °F - 60.8 °F 94% 29.74 in 10.0 mi NE 9.2 mph - N/A   Overcast
12:55 AM 64.4 °F - 60.8 °F 88% 29.73 in 10.0 mi East 10.4 mph - N/A   Overcast
1:15 AM 64.4 °F - 60.8 °F 88% 29.73 in 10.0 mi East 10.4 mph - N/A   Overcast
1:35 AM 64.4 °F - 62.6 °F 94% 29.73 in 10.0 mi ENE 15.0 mph - N/A   Overcast
1:55 AM 64.4 °F - 62.6 °F 94% 29.73 in 10.0 mi ENE 9.2 mph - N/A   Overcast
2:15 AM 64.4 °F - 60.8 °F 88% 29.74 in 10.0 mi ENE 11.5 mph - N/A   Overcast
2:35 AM 64.4 °F - 62.6 °F 94% 29.74 in 10.0 mi ENE 12.7 mph - N/A   Overcast
2:55 AM 64.4 °F - 62.6 °F 94% 29.73 in 10.0 mi East 12.7 mph - N/A   Overcast
3:15 AM 64.4 °F - 62.6 °F 94% 29.72 in 10.0 mi East 13.8 mph - N/A Thunderstorm Overcast
3:35 AM 62.6 °F - 62.6 °F 100% 29.72 in 10.0 mi East 15.0 mph - N/A   Overcast
3:55 AM 64.4 °F - 62.6 °F 94% 29.72 in 10.0 mi East 18.4 mph - N/A   Overcast
4:15 AM 64.4 °F - 62.6 °F 94% 29.71 in 10.0 mi East 19.6 mph - N/A   Overcast
4:35 AM 64.4 °F - 62.6 °F 94% 29.72 in 10.0 mi East 15.0 mph 18.4 mph N/A   Overcast
4:55 AM 64.4 °F - 62.6 °F 94% 29.72 in 10.0 mi East 19.6 mph 25.3 mph N/A   Overcast
5:15 AM 64.4 °F - 62.6 °F 94% 29.72 in 10.0 mi East 18.4 mph 26.5 mph N/A   Overcast
5:35 AM 64.4 °F - 62.6 °F 94% 29.72 in 10.0 mi East 15.0 mph - N/A   Overcast
5:55 AM 64.4 °F - 62.6 °F 94% 29.72 in 10.0 mi East 21.9 mph 25.3 mph N/A   Overcast
6:15 AM 64.4 °F - 62.6 °F 94% 29.73 in 10.0 mi East 16.1 mph 23.0 mph N/A   Overcast
6:35 AM 66.2 °F - 62.6 °F 88% 29.72 in 10.0 mi ESE 15.0 mph - N/A   Overcast
6:55 AM 66.2 °F - 62.6 °F 88% 29.72 in 10.0 mi ESE 19.6 mph 26.5 mph N/A   Overcast
7:35 AM 64.4 °F - 62.6 °F 94% 29.72 in 10.0 mi ESE 18.4 mph 26.5 mph N/A   Overcast
7:55 AM 64.4 °F - 62.6 °F 94% 29.72 in 10.0 mi East 18.4 mph 26.5 mph N/A   Overcast
8:15 AM 64.4 °F - 62.6 °F 94% 29.73 in 10.0 mi SSE 8.1 mph 19.6 mph N/A   Mostly Cloudy
8:35 AM 64.4 °F - 62.6 °F 94% 29.72 in 10.0 mi East 9.2 mph - N/A   Overcast
8:55 AM 64.4 °F - 62.6 °F 94% 29.72 in 10.0 mi ESE 17.3 mph 21.9 mph N/A   Overcast
9:15 AM 64.4 °F - 62.6 °F 94% 29.71 in 10.0 mi ESE 17.3 mph 25.3 mph N/A   Overcast
9:35 AM 64.4 °F - 62.6 °F 94% 29.71 in 10.0 mi ESE 18.4 mph 24.2 mph N/A   Mostly Cloudy
9:55 AM 64.4 °F - 62.6 °F 94% 29.70 in 10.0 mi ESE 18.4 mph - N/A   Overcast
10:15 AM 64.4 °F - 62.6 °F 94% 29.71 in 10.0 mi ESE 11.5 mph - N/A   Overcast
10:35 AM 66.2 °F - 64.4 °F 94% 29.71 in 10.0 mi ESE 10.4 mph 25.3 mph N/A   Overcast
10:55 AM 66.2 °F - 64.4 °F 94% 29.71 in 10.0 mi North 4.6 mph 19.6 mph N/A   Overcast
11:15 AM 66.2 °F - 64.4 °F 94% 29.71 in 10.0 mi SSW 4.6 mph - N/A   Overcast
11:35 AM 66.2 °F - 64.4 °F 94% 29.70 in 10.0 mi South 3.5 mph - N/A   Overcast
11:55 AM 68.0 °F - 66.2 °F 94% 29.69 in 10.0 mi ESE 6.9 mph - N/A   Overcast
12:15 PM 73.4 °F - 68.0 °F 83% 29.67 in 10.0 mi SE 17.3 mph 21.9 mph N/A   Mostly Cloudy
12:35 PM 73.4 °F - 68.0 °F 83% 29.67 in 10.0 mi SE 15.0 mph 20.7 mph N/A   Mostly Cloudy
12:55 PM 75.2 °F - 68.0 °F 78% 29.66 in 10.0 mi SE 13.8 mph 21.9 mph N/A   Mostly Cloudy
1:15 PM 77.0 °F - 69.8 °F 78% 29.65 in 10.0 mi SE 15.0 mph 21.9 mph N/A   Scattered Clouds
1:35 PM 77.0 °F - 68.0 °F 74% 29.64 in 10.0 mi SE 17.3 mph 21.9 mph N/A   Mostly Cloudy
1:55 PM 80.6 °F - 66.2 °F 61% 29.63 in 10.0 mi South 18.4 mph 26.5 mph N/A   Mostly Cloudy
2:15 PM 82.4 °F - 66.2 °F 58% 29.63 in 10.0 mi South 17.3 mph 23.0 mph N/A   Mostly Cloudy
2:35 PM 80.6 °F - 66.2 °F 61% 29.61 in 10.0 mi South 17.3 mph 24.2 mph N/A   Mostly Cloudy
2:55 PM 82.4 °F - 62.6 °F 51% 29.61 in 10.0 mi South 19.6 mph 28.8 mph N/A   Overcast
3:15 PM 84.2 °F - 62.6 °F 48% 29.61 in 10.0 mi South 20.7 mph 25.3 mph N/A   Mostly Cloudy
3:35 PM 80.6 °F - 59.0 °F 48% 29.63 in 10.0 mi SW 23.0 mph 32.2 mph N/A   Partly Cloudy
3:55 PM 80.6 °F - 57.2 °F 45% 29.64 in 10.0 mi WSW 24.2 mph 29.9 mph N/A   Clear
4:15 PM 77.0 °F - 57.2 °F 50% 29.65 in 10.0 mi WSW 20.7 mph 31.1 mph N/A   Clear
4:35 PM 77.0 °F - 57.2 °F 50% 29.66 in 10.0 mi WSW 19.6 mph 28.8 mph N/A   Clear
4:55 PM 75.2 °F - 57.2 °F 53% 29.67 in 10.0 mi WSW 23.0 mph 32.2 mph N/A   Clear
5:15 PM 73.4 °F - 57.2 °F 57% 29.69 in 10.0 mi West 21.9 mph 32.2 mph N/A   Clear
5:35 PM 71.6 °F - 55.4 °F 57% 29.71 in 10.0 mi West 24.2 mph 33.4 mph N/A   Clear
5:55 PM 68.0 °F - 53.6 °F 60% 29.73 in 10.0 mi West 21.9 mph 32.2 mph N/A   Clear
6:15 PM 66.2 °F - 50.0 °F 56% 29.74 in 10.0 mi WSW 24.2 mph 34.5 mph N/A   Clear
6:35 PM 64.4 °F - 48.2 °F 56% 29.76 in 10.0 mi West 20.7 mph 29.9 mph N/A   Clear
6:55 PM 62.6 °F - 46.4 °F 55% 29.77 in 10.0 mi West 23.0 mph 28.8 mph N/A   Clear
7:15 PM 60.8 °F - 46.4 °F 59% 29.80 in 10.0 mi West 10.4 mph - N/A   Clear
7:35 PM 59.0 °F - 44.6 °F 59% 29.82 in 10.0 mi West 19.6 mph 24.2 mph N/A   Clear
7:55 PM 57.2 °F - 44.6 °F 63% 29.84 in 10.0 mi West 19.6 mph 26.5 mph N/A   Clear
8:15 PM 55.4 °F - 42.8 °F 63% 29.85 in 10.0 mi West 17.3 mph 25.3 mph N/A   Clear
8:35 PM 53.6 °F - 41.0 °F 62% 29.87 in 10.0 mi WNW 19.6 mph 24.2 mph N/A   Clear
8:55 PM 50.0 °F - 39.2 °F 66% 29.88 in 10.0 mi West 16.1 mph 29.9 mph N/A   Clear
9:15 PM 50.0 °F - 39.2 °F 66% 29.89 in 10.0 mi West 11.5 mph - N/A   Clear
9:35 PM 48.2 °F - 37.4 °F 66% 29.89 in 10.0 mi West 21.9 mph 28.8 mph N/A   Clear
9:55 PM 46.4 °F 39.2 °F 37.4 °F 71% 29.90 in 10.0 mi West 18.4 mph 25.3 mph N/A   Clear
10:15 PM 46.4 °F 40.1 °F 35.6 °F 66% 29.91 in 10.0 mi West 15.0 mph 24.2 mph N/A   Clear
10:35 PM 44.6 °F 37.8 °F 35.6 °F 71% 29.93 in 10.0 mi West 15.0 mph - N/A   Clear
10:55 PM 44.6 °F 37.2 °F 35.6 °F 71% 29.94 in 10.0 mi WNW 17.3 mph 26.5 mph N/A   Partly Cloudy
11:15 PM 42.8 °F 34.8 °F 33.8 °F 70% 29.93 in 10.0 mi West 17.3 mph 26.5 mph N/A   Partly Cloudy
11:35 PM 44.6 °F 36.9 °F 33.8 °F 66% 29.94 in 10.0 mi West 18.4 mph 24.2 mph N/A   Clear
11:55 PM 42.8 °F 34.8 °F 33.8 °F 70% 29.94 in 10.0 mi West 17.3 mph 24.2 mph N/A   Clear